EW1845 Weather Reports


Display with metric or nautical units.
time (UTC)temp
F
wind
direction
speed
MPH
gust
MPH
rain 1hr
in
rain 24hr
in
rain mn
in
humidity
%
barometer
mb
20260904171553 72 161 1.0 6.0 0.00 0.00 0.00 70 1013.0
20260904171505 72 156 3.0 7.0 0.00 0.00 0.00 69 1013.0
20260904170524 72 245 1.0 4.0 0.00 0.00 0.00 71 1013.0
20260904170012 71 242 2.0 5.0 0.00 0.00 0.00 71 1012.9
20260904165449 71 248 0.0 4.0 0.00 0.00 0.00 74 1012.8
20260904164603 70 241 0.0 5.0 0.00 0.00 0.00 74 1012.8
20260904164442 70 168 1.0 4.0 0.00 0.00 0.00 74 1012.7
20260904163505 70 209 1.0 6.0 0.00 0.00 0.00 74 1012.5
20260904163005 69 199 2.0 7.0 0.00 0.00 0.00 75 1012.6
20260904162502 70 206 2.0 6.0 0.00 0.00 0.00 76 1012.6
20260904161633 70 229 3.0 7.0 0.00 0.00 0.00 75 1012.7
20260904160329 69 146 0.0 0.0 0.00 0.00 0.00 75 1012.5
20260904155301 68 63 0.0 5.0 0.00 0.00 0.00 80 1012.5
20260904154503 67 35 0.0 6.0 0.00 0.00 0.00 82 1012.6
20260904154322 67 58 1.0 5.0 0.00 0.00 0.00 83 1012.6
20260904153313 66 49 0.0 2.0 0.00 0.00 0.00 85 1012.7
20260904153104 65 44 1.0 3.0 0.00 0.00 0.00 85 1012.7
20260904152306 66 20 0.0 0.0 0.00 0.00 0.00 87 1012.6
20260904151503 64 44 0.0 3.0 0.00 0.00 0.00 88 1012.6
20260904151244 65 43 1.0 3.0 0.00 0.00 0.00 88 1012.5
20260904150008 64 23 0.0 2.0 0.00 0.00 0.00 88 1012.5
20260904145054 64 150 0.0 0.0 0.00 0.00 0.00 89 1012.3
20260904144608 63 53 0.0 4.0 0.00 0.00 0.00 89 1012.4
20260904144113 64 36 0.0 2.0 0.00 0.00 0.00 90 1012.2
20260904143130 63 49 0.0 2.0 0.00 0.00 0.00 90 1012.1
20260904143102 63 49 0.0 1.0 0.00 0.00 0.00 90 1012.2
20260904141503 62 43 0.0 3.0 0.00 0.00 0.00 91 1012.1
20260904140956 62 44 0.0 3.0 0.00 0.00 0.00 91 1012.0
20260904140003 61 31 0.0 2.0 0.00 0.00 0.00 91 1011.9
20260904135957 62 31 0.0 1.0 0.00 0.00 0.00 91 1011.9
20260904134603 61 27 0.0 2.0 0.00 0.00 0.00 90 1011.8
20260904133817 61 37 0.0 1.0 0.00 0.00 0.00 91 1011.6
20260904133006 61 32 0.0 2.0 0.00 0.00 0.00 91 1011.7
20260904132751 62 26 0.0 1.0 0.00 0.00 0.00 91 1011.6
20260904131743 62 43 0.0 1.0 0.00 0.00 0.00 91 1011.6
20260904131605 61 65 1.0 2.0 0.00 0.00 0.00 91 1011.7
20260904130736 61 23 0.0 1.0 0.00 0.00 0.00 91 1011.7
20260904130104 61 32 0.0 1.0 0.00 0.00 0.00 91 1011.7
20260904125724 61 32 0.0 0.0 0.00 0.00 0.00 92 1011.7
20260904124710 61 33 0.0 0.0 0.00 0.00 0.00 90 1011.6
20260904124502 61 33 0.0 1.0 0.00 0.00 0.00 91 1011.6
20260904123735 61 33 0.0 0.0 0.00 0.00 0.00 91 1011.6
20260904123102 61 33 0.0 1.0 0.00 0.00 0.00 91 1011.5
20260904121504 61 32 0.0 2.0 0.00 0.00 0.00 91 1011.4
20260904120416 62 33 0.0 0.0 0.00 0.00 0.00 91 1011.3
20260904120007 62 32 0.0 2.0 0.00 0.00 0.00 91 1011.3
20260904115418 62 33 0.0 1.0 0.00 0.00 0.00 91 1011.4
20260904114605 62 33 0.0 0.0 0.00 0.00 0.00 91 1011.4
20260904114433 62 33 0.0 0.0 0.00 0.00 0.00 91 1011.4
20260904113457 62 33 0.0 0.0 0.00 0.00 0.00 91 1011.4
20260904113008 62 33 0.0 1.0 0.00 0.00 0.00 91 1011.4
20260904112505 62 33 0.0 0.0 0.00 0.00 0.00 91 1011.4
20260904111602 62 33 0.0 0.0 0.00 0.00 0.00 91 1011.4
20260904111511 62 33 0.0 0.0 0.00 0.00 0.00 91 1011.4
20260904110437 63 33 0.0 0.0 0.00 0.00 0.00 91 1011.4
20260904110104 62 33 0.0 0.0 0.00 0.00 0.00 91 1011.4
20260904105420 63 33 0.0 0.0 0.00 0.00 0.00 91 1011.3
20260904104503 63 33 0.0 1.0 0.00 0.00 0.00 91 1011.5
20260904104349 63 33 0.0 0.0 0.00 0.00 0.00 91 1011.4
20260904103317 63 33 0.0 2.0 0.00 0.00 0.00 92 1011.3
20260904103102 62 32 1.0 3.0 0.00 0.00 0.00 92 1011.4
20260904102312 63 37 0.0 1.0 0.00 0.00 0.00 92 1011.4
20260904101503 62 41 0.0 1.0 0.00 0.00 0.00 92 1011.3
20260904101258 62 41 0.0 0.0 0.00 0.00 0.00 92 1011.3
20260904100311 62 27 0.0 1.0 0.00 0.00 0.00 93 1011.3
20260904100003 61 25 0.0 1.0 0.00 0.00 0.00 92 1011.3
20260904095312 61 25 0.0 0.0 0.00 0.00 0.00 93 1011.3
20260904094602 61 24 0.0 2.0 0.00 0.00 0.00 93 1011.2
20260904094247 61 25 0.0 1.0 0.00 0.00 0.00 92 1011.2
20260904093229 61 13 0.0 0.0 0.00 0.00 0.00 92 1011.2
20260904093003 60 13 0.0 1.0 0.00 0.00 0.00 92 1011.2
20260904092223 61 13 0.0 0.0 0.00 0.00 0.00 93 1011.2
20260904091602 60 13 1.0 1.0 0.00 0.00 0.00 92 1011.1
20260904091239 61 13 0.0 0.0 0.00 0.00 0.00 92 1011.1
20260904090300 60 13 0.0 0.0 0.00 0.00 0.00 92 1011.1
20260904090003 60 13 0.0 1.0 0.00 0.00 0.00 92 1011.2
20260904085244 60 13 0.0 0.0 0.00 0.00 0.00 92 1011.2
20260904084603 60 13 0.0 1.0 0.00 0.00 0.00 93 1011.3
20260904084305 61 13 0.0 0.0 0.00 0.00 0.00 93 1011.3
20260904083305 60 13 0.0 0.0 0.00 0.00 0.00 92 1011.4
20260904083003 60 13 0.0 1.0 0.00 0.00 0.00 92 1011.5
20260904082231 61 13 0.0 0.0 0.00 0.00 0.00 92 1011.4
20260904081605 60 22 0.0 1.0 0.00 0.00 0.00 92 1011.3
20260904080106 60 22 0.0 1.0 0.00 0.00 0.00 90 1011.5
20260904080010 60 22 0.0 0.0 0.00 0.00 0.00 91 1011.4
20260904074954 61 22 0.0 0.0 0.00 0.00 0.00 91 1011.6
20260904074502 60 23 0.0 1.0 0.00 0.00 0.00 91 1011.6
20260904073940 61 22 0.0 0.0 0.00 0.00 0.00 90 1011.5
20260904073108 61 22 0.0 1.0 0.00 0.00 0.00 90 1011.5
20260904071854 62 22 0.0 0.0 0.00 0.00 0.00 90 1011.4
20260904071502 61 22 0.0 2.0 0.00 0.00 0.00 91 1011.7
20260904070824 62 233 0.0 0.0 0.00 0.00 0.00 91 1011.6
20260904070004 61 231 0.0 1.0 0.00 0.00 0.00 90 1011.5
20260904065845 61 231 0.0 0.0 0.00 0.00 0.00 91 1011.6
20260904064813 62 231 0.0 0.0 0.00 0.00 0.00 91 1011.3
20260904064630 61 231 0.0 1.0 0.00 0.00 0.00 91 1011.4
20260904063837 62 229 0.0 0.0 0.00 0.00 0.00 91 1011.4
20260904063006 61 229 0.0 1.0 0.00 0.00 0.00 90 1011.3
20260904062833 61 229 0.0 0.0 0.00 0.00 0.00 90 1011.2
20260904061854 62 229 0.0 0.0 0.00 0.00 0.00 90 1011.2
20260904061602 61 229 0.0 1.0 0.00 0.00 0.00 89 1011.2
20260904060827 61 229 0.0 0.0 0.00 0.00 0.00 89 1011.2
20260904060126 61 229 0.0 1.0 0.00 0.00 0.00 88 1011.2
20260904055810 62 229 0.0 0.0 0.00 0.00 0.00 89 1011.2
20260904054752 62 229 0.0 0.0 0.00 0.00 0.00 89 1011.2
20260904054502 61 229 0.0 1.0 0.00 0.00 0.00 89 1011.2
20260904053721 62 229 0.0 0.0 0.00 0.00 0.00 89 1011.2
20260904053103 62 229 0.0 1.0 0.00 0.00 0.00 88 1011.3
20260904052646 62 229 0.0 0.0 0.00 0.00 0.00 88 1011.2
20260904051656 62 229 0.0 0.0 0.00 0.00 0.00 88 1011.2
20260904051503 61 229 0.0 0.0 0.00 0.00 0.00 87 1011.3
20260904050625 62 229 0.0 0.0 0.00 0.00 0.00 87 1011.3
20260904050002 62 229 0.0 0.0 0.00 0.00 0.00 87 1011.3
20260904045633 62 229 0.0 0.0 0.00 0.00 0.00 86 1011.3
20260904044649 62 229 0.0 0.0 0.00 0.00 0.00 87 1011.2
20260904044605 62 229 0.0 1.0 0.00 0.00 0.00 87 1011.3
20260904043631 63 229 0.0 0.0 0.00 0.00 0.00 87 1011.1
20260904043006 62 229 0.0 1.0 0.00 0.00 0.00 87 1011.1
20260904042557 62 229 0.0 0.0 0.00 0.00 0.00 87 1011.1
20260904041618 63 229 0.0 0.0 0.00 0.00 0.00 87 1011.1
20260904041604 62 229 0.0 1.0 0.00 0.00 0.00 87 1011.1
20260904040547 63 229 0.0 0.0 0.00 0.00 0.00 86 1011.0
20260904040103 63 229 0.0 1.0 0.00 0.00 0.00 87 1011.0
20260904035539 63 229 0.0 0.0 0.00 0.00 0.00 86 1011.0
20260904034551 64 229 0.0 0.0 0.00 0.00 0.00 85 1010.8
20260904034502 63 229 0.0 0.0 0.00 0.00 0.00 85 1010.8
20260904033613 64 229 0.0 0.0 0.00 0.00 0.00 85 1010.7
20260904033103 64 229 0.0 0.0 0.00 0.00 0.00 85 1010.7
20260904032625 65 229 0.0 0.0 0.00 0.00 0.00 84 1010.5
20260904031600 66 229 0.0 0.0 0.00 0.00 0.00 84 1010.5
20260904031504 65 229 0.0 1.0 0.00 0.00 0.00 84 1010.6
20260904030605 66 229 0.0 2.0 0.00 0.00 0.00 84 1010.4
20260904030004 66 259 0.0 3.0 0.00 0.00 0.00 84 1010.5
20260904024502 67 241 0.0 2.0 0.00 0.00 0.00 81 1010.4
20260904024452 67 241 0.0 0.0 0.00 0.00 0.00 81 1010.4
20260904023441 67 212 0.0 3.0 0.00 0.00 0.00 80 1010.4
20260904023120 67 150 0.0 4.0 0.00 0.00 0.00 79 1010.4
20260904022438 68 217 0.0 3.0 0.00 0.00 0.00 79 1010.3
20260904021509 68 173 1.0 3.0 0.00 0.00 0.00 78 1010.2
20260904021407 68 217 0.0 2.0 0.00 0.00 0.00 78 1010.2
20260904020002 68 136 0.0 5.0 0.00 0.00 0.00 77 1010.4
20260904015235 69 188 0.0 4.0 0.00 0.00 0.00 76 1010.4
20260904014504 69 142 2.0 5.0 0.00 0.00 0.00 75 1010.4
20260904014258 70 196 1.0 5.0 0.00 0.00 0.00 75 1010.4
20260904013258 70 229 1.0 6.0 0.00 0.00 0.00 74 1010.3
20260904013126 70 153 0.0 7.0 0.00 0.00 0.00 74 1010.4
20260904012320 71 238 1.0 6.0 0.00 0.00 0.00 74 1010.3
20260904011502 70 219 2.0 7.0 0.00 0.00 0.00 73 1010.5
20260904011246 71 223 2.0 7.0 0.00 0.00 0.00 72 1010.4
20260904010242 72 234 2.0 7.0 0.00 0.00 0.00 72 1010.4
20260904010003 71 221 3.0 8.0 0.00 0.00 0.00 72 1010.5
20260904005218 72 206 2.0 6.0 0.00 0.00 0.00 71 1010.4
20260904004658 72 207 2.0 6.0 0.00 0.00 0.00 71 1010.4
20260904004216 72 128 2.0 6.0 0.00 0.00 0.00 71 1010.4
20260904003223 73 226 1.0 7.0 0.00 0.00 0.00 70 1010.5
20260904003005 73 127 2.0 7.0 0.00 0.00 0.00 70 1010.5
20260904002228 73 177 2.0 10.0 0.00 0.00 0.00 71 1010.5
20260904001610 73 169 3.0 8.0 0.00 0.00 0.00 69 1010.6
20260904001153 74 148 3.0 10.0 0.00 0.00 0.00 69 1010.5
20260904000103 73 240 3.0 8.0 0.00 0.00 0.00 70 1010.6
20260903235048 75 209 3.0 10.0 0.00 0.00 0.00 67 1010.6
20260903234503 74 191 3.0 11.0 0.00 0.00 0.00 68 1010.6
20260903234034 75 226 3.0 10.0 0.00 0.00 0.00 68 1010.6
20260903233102 75 205 2.0 7.0 0.00 0.00 0.00 67 1010.7
20260903233040 76 202 3.0 13.0 0.00 0.00 0.00 67 1010.7
20260903232031 76 244 3.0 13.0 0.00 0.00 0.00 65 1010.8
20260903231503 76 150 2.0 10.0 0.00 0.00 0.00 65 1010.8
20260903230956 77 207 3.0 10.0 0.00 0.00 0.00 65 1010.8
20260903230105 76 183 5.0 12.0 0.00 0.00 0.00 65 1010.9
20260903224902 76 212 4.0 10.0 0.00 0.00 0.00 65 1011.0
20260903224503 76 183 3.0 10.0 0.00 0.00 0.00 65 1011.1
20260903223912 76 155 4.0 10.0 0.00 0.00 0.00 65 1011.0
20260903223112 76 268 5.0 9.0 0.00 0.00 0.00 64 1011.2
20260903221733 77 109 3.0 12.0 0.00 0.00 0.00 63 1011.3
20260903221503 77 236 4.0 10.0 0.00 0.00 0.00 63 1011.4
20260903220715 77 179 3.0 12.0 0.00 0.00 0.00 64 1011.3
20260903220003 76 189 4.0 13.0 0.00 0.00 0.00 65 1011.5
20260903215701 76 231 5.0 11.0 0.00 0.00 0.00 65 1011.5
20260903214656 77 181 4.0 11.0 0.00 0.00 0.00 64 1011.5
20260903214602 76 288 4.0 11.0 0.00 0.00 0.00 65 1011.5
20260903213637 77 159 4.0 13.0 0.00 0.00 0.00 65 1011.5
20260903213003 76 205 3.0 8.0 0.00 0.00 0.00 65 1011.5
20260903211603 76 195 3.0 10.0 0.00 0.00 0.00 65 1011.6
20260903211500 76 221 4.0 9.0 0.00 0.00 0.00 65 1011.6
20260903210434 77 212 5.0 10.0 0.00 0.00 0.00 64 1011.7
20260903205457 78 217 4.0 11.0 0.00 0.00 0.00 63 1011.8
20260903204504 78 231 4.0 11.0 0.00 0.00 0.00 62 1011.8
20260903204502 77 231 7.0 12.0 0.00 0.00 0.00 62 1011.9
20260903203517 78 146 2.0 11.0 0.00 0.00 0.00 62 1011.7
20260903203102 78 200 3.0 8.0 0.00 0.00 0.00 61 1011.8
20260903202523 78 162 4.0 11.0 0.00 0.00 0.00 63 1011.7
20260903201546 79 248 4.0 11.0 0.00 0.00 0.00 60 1011.7
20260903201502 79 251 3.0 12.0 0.00 0.00 0.00 60 1011.9
20260903200549 80 223 3.0 8.0 0.00 0.00 0.00 59 1011.9
20260903200002 79 212 6.0 9.0 0.00 0.00 0.00 57 1012.0
20260903195519 80 49 2.0 11.0 0.00 0.00 0.00 54 1012.0
20260903194504 80 254 1.0 11.0 0.00 0.00 0.00 52 1012.1
20260903193435 79 184 1.0 9.0 0.00 0.00 0.00 53 1012.4
20260903193105 78 217 1.0 8.0 0.00 0.00 0.00 53 1012.6
20260903192459 78 190 3.0 9.0 0.00 0.00 0.00 56 1012.5
20260903191516 78 217 2.0 9.0 0.00 0.00 0.00 58 1012.6
20260903191502 77 193 4.0 10.0 0.00 0.00 0.00 57 1012.7
20260903190450 78 257 3.0 9.0 0.00 0.00 0.00 56 1012.8
20260903184608 77 198 2.0 8.0 0.00 0.00 0.00 58 1013.1
20260903184334 77 189 1.0 6.0 0.00 0.00 0.00 56 1013.1
20260903183345 76 203 2.0 7.0 0.00 0.00 0.00 60 1013.2
20260903183009 75 191 2.0 8.0 0.00 0.00 0.00 60 1013.2
20260903182338 76 214 1.0 7.0 0.00 0.00 0.00 59 1013.3
20260903181602 76 162 2.0 7.0 0.00 0.00 0.00 59 1013.4
20260903180243 76 174 1.0 4.0 0.00 0.00 0.00 60 1013.5
20260903180111 75 227 0.0 6.0 0.00 0.00 0.00 60 1013.5
20260903175209 75 159 2.0 7.0 0.00 0.00 0.00 65 1013.5
20260903174502 73 153 2.0 8.0 0.00 0.00 0.00 66 1013.6
20260903173110 72 212 4.0 8.0 0.00 0.00 0.00 66 1013.5
20260903173016 73 175 2.0 7.0 0.00 0.00 0.00 66 1013.5